Year,Month,Day,Hour,Minute,Value (Times are PST for temperature in C)
2021,04,17,00,00,12.80
2021,04,17,00,01,12.80
2021,04,17,00,02,12.80
2021,04,17,00,03,12.80
2021,04,17,00,04,12.80
2021,04,17,00,05,12.80
2021,04,17,00,06,12.80
2021,04,17,00,07,12.80
2021,04,17,00,08,12.70
2021,04,17,00,09,12.70
2021,04,17,00,10,12.60
2021,04,17,00,11,12.60
2021,04,17,00,12,12.50
2021,04,17,00,13,12.50
2021,04,17,00,14,12.50
2021,04,17,00,15,12.50
2021,04,17,00,16,12.40
2021,04,17,00,17,12.40
2021,04,17,00,18,12.40
2021,04,17,00,19,12.40
2021,04,17,00,20,12.30
2021,04,17,00,21,12.30
2021,04,17,00,22,12.30
2021,04,17,00,23,12.30
2021,04,17,00,24,12.30
2021,04,17,00,25,12.30
2021,04,17,00,26,12.20
2021,04,17,00,27,12.20
2021,04,17,00,28,12.20
2021,04,17,00,29,12.20
2021,04,17,00,30,12.30
2021,04,17,00,31,12.30
2021,04,17,00,32,12.20
2021,04,17,00,33,12.20
2021,04,17,00,34,12.10
2021,04,17,00,35,12.10
2021,04,17,00,36,12.10
2021,04,17,00,37,12.00
2021,04,17,00,38,12.00
2021,04,17,00,39,12.00
2021,04,17,00,40,11.90
2021,04,17,00,41,11.90
2021,04,17,00,42,11.90
2021,04,17,00,43,11.90
2021,04,17,00,44,11.80
2021,04,17,00,45,11.80
2021,04,17,00,46,11.90
2021,04,17,00,47,11.90
2021,04,17,00,48,11.90
2021,04,17,00,49,12.00
2021,04,17,00,50,12.00
2021,04,17,00,51,12.10
2021,04,17,00,52,12.10
2021,04,17,00,53,12.20
2021,04,17,00,54,12.20
2021,04,17,00,55,12.30
2021,04,17,00,56,12.30
2021,04,17,00,57,12.30
2021,04,17,00,58,12.40
2021,04,17,00,59,12.40
2021,04,17,01,00,12.40
2021,04,17,01,01,12.40
2021,04,17,01,02,12.40
2021,04,17,01,03,12.30
2021,04,17,01,04,12.30
2021,04,17,01,05,12.20
2021,04,17,01,06,12.10
2021,04,17,01,07,12.00
2021,04,17,01,08,12.00
2021,04,17,01,09,11.90
2021,04,17,01,10,11.90
2021,04,17,01,11,11.80
2021,04,17,01,12,11.80
2021,04,17,01,13,11.80
2021,04,17,01,14,11.80
2021,04,17,01,15,11.80
2021,04,17,01,16,11.80
2021,04,17,01,17,11.80
2021,04,17,01,18,11.90
2021,04,17,01,19,12.00
2021,04,17,01,20,12.10
2021,04,17,01,21,12.20
2021,04,17,01,22,12.30
2021,04,17,01,23,12.30
2021,04,17,01,24,12.30
2021,04,17,01,25,12.30
2021,04,17,01,26,12.30
2021,04,17,01,27,12.30
2021,04,17,01,28,12.20
2021,04,17,01,29,12.10
2021,04,17,01,30,12.10
2021,04,17,01,31,12.00
2021,04,17,01,32,12.00
2021,04,17,01,33,11.90
2021,04,17,01,34,11.90
2021,04,17,01,35,11.80
2021,04,17,01,36,11.80
2021,04,17,01,37,11.80
2021,04,17,01,38,11.80
2021,04,17,01,39,11.80
2021,04,17,01,40,11.80
2021,04,17,01,41,11.80
2021,04,17,01,42,11.90
2021,04,17,01,43,11.90
2021,04,17,01,44,11.90
2021,04,17,01,45,11.90
2021,04,17,01,46,12.00
2021,04,17,01,47,12.00
2021,04,17,01,48,12.00
2021,04,17,01,49,12.00
2021,04,17,01,50,12.00
2021,04,17,01,51,12.00
2021,04,17,01,52,12.00
2021,04,17,01,53,12.10
2021,04,17,01,54,12.10
2021,04,17,01,55,12.00
2021,04,17,01,56,12.00
2021,04,17,01,57,12.00
2021,04,17,01,58,12.10
2021,04,17,01,59,12.10
2021,04,17,02,00,12.00
2021,04,17,02,01,12.00
2021,04,17,02,02,12.00
2021,04,17,02,03,11.90
2021,04,17,02,04,11.90
2021,04,17,02,05,11.90
2021,04,17,02,06,11.90
2021,04,17,02,07,11.90
2021,04,17,02,08,11.90
2021,04,17,02,09,11.90
2021,04,17,02,10,11.90
2021,04,17,02,11,11.90
2021,04,17,02,12,11.90
2021,04,17,02,13,11.80
2021,04,17,02,14,11.80
2021,04,17,02,15,11.80
2021,04,17,02,16,11.70
2021,04,17,02,17,11.60
2021,04,17,02,18,11.60
2021,04,17,02,19,11.60
2021,04,17,02,20,11.60
2021,04,17,02,21,11.60
2021,04,17,02,22,11.60
2021,04,17,02,23,11.60
2021,04,17,02,24,11.60
2021,04,17,02,25,11.70
2021,04,17,02,26,11.80
2021,04,17,02,27,11.90
2021,04,17,02,28,12.00
2021,04,17,02,29,12.00
2021,04,17,02,30,12.10
2021,04,17,02,31,12.20
2021,04,17,02,32,12.20
2021,04,17,02,33,12.20
2021,04,17,02,34,12.30
2021,04,17,02,35,12.30
2021,04,17,02,36,12.30
2021,04,17,02,37,12.30
2021,04,17,02,38,12.30
2021,04,17,02,39,12.30
2021,04,17,02,40,12.30
2021,04,17,02,41,12.30
2021,04,17,02,42,12.20
2021,04,17,02,43,12.20
2021,04,17,02,44,12.20
2021,04,17,02,45,12.20
2021,04,17,02,46,12.20
2021,04,17,02,47,12.20
2021,04,17,02,48,12.10
2021,04,17,02,49,12.10
2021,04,17,02,50,12.00
2021,04,17,02,51,12.00
2021,04,17,02,52,11.90
2021,04,17,02,53,11.90
2021,04,17,02,54,11.80
2021,04,17,02,55,11.70
2021,04,17,02,56,11.50
2021,04,17,02,57,11.40
2021,04,17,02,58,11.20
2021,04,17,02,59,11.10
2021,04,17,03,00,11.00
2021,04,17,03,01,10.90
2021,04,17,03,02,10.80
2021,04,17,03,03,10.80
2021,04,17,03,04,10.70
2021,04,17,03,05,10.70
2021,04,17,03,06,10.70
2021,04,17,03,07,10.70
2021,04,17,03,08,10.80
2021,04,17,03,09,10.90
2021,04,17,03,10,10.90
2021,04,17,03,11,10.90
2021,04,17,03,12,10.90
2021,04,17,03,13,11.00
2021,04,17,03,14,11.10
2021,04,17,03,15,11.10
2021,04,17,03,16,11.10
2021,04,17,03,17,11.20
2021,04,17,03,18,11.20
2021,04,17,03,19,11.20
2021,04,17,03,20,11.30
2021,04,17,03,21,11.30
2021,04,17,03,22,11.40
2021,04,17,03,23,11.40
2021,04,17,03,24,11.40
2021,04,17,03,25,11.60
2021,04,17,03,26,11.60
2021,04,17,03,27,11.60
2021,04,17,03,28,11.60
2021,04,17,03,29,11.60
2021,04,17,03,30,11.60
2021,04,17,03,31,11.60
2021,04,17,03,32,11.60
2021,04,17,03,33,11.60
2021,04,17,03,34,11.50
2021,04,17,03,35,11.40
2021,04,17,03,36,11.40
2021,04,17,03,37,11.40
2021,04,17,03,38,11.40
2021,04,17,03,39,11.30
2021,04,17,03,40,11.20
2021,04,17,03,41,11.20
2021,04,17,03,42,11.20
2021,04,17,03,43,11.10
2021,04,17,03,44,11.10
2021,04,17,03,45,11.10
2021,04,17,03,46,11.00
2021,04,17,03,47,10.90
2021,04,17,03,48,10.90
2021,04,17,03,49,10.90
2021,04,17,03,50,10.90
2021,04,17,03,51,10.90
2021,04,17,03,52,10.90
2021,04,17,03,53,10.90
2021,04,17,03,54,10.80
2021,04,17,03,55,10.80
2021,04,17,03,56,10.80
2021,04,17,03,57,10.80
2021,04,17,03,58,10.80
2021,04,17,03,59,10.80
2021,04,17,04,00,10.80
2021,04,17,04,01,10.80
2021,04,17,04,02,10.80
2021,04,17,04,03,10.80
2021,04,17,04,04,10.90
2021,04,17,04,05,10.90
2021,04,17,04,06,10.90
2021,04,17,04,07,10.90
2021,04,17,04,08,10.90
2021,04,17,04,09,10.90
2021,04,17,04,10,10.90
2021,04,17,04,11,10.90
2021,04,17,04,12,10.90
2021,04,17,04,13,10.90
2021,04,17,04,14,10.90
2021,04,17,04,15,10.80
2021,04,17,04,16,10.80
2021,04,17,04,17,10.70
2021,04,17,04,18,10.70
2021,04,17,04,19,10.60
2021,04,17,04,20,10.60
2021,04,17,04,21,10.60
2021,04,17,04,22,10.50
2021,04,17,04,23,10.40
2021,04,17,04,24,10.40
2021,04,17,04,25,10.40
2021,04,17,04,26,10.30
2021,04,17,04,27,10.30
2021,04,17,04,28,10.30
2021,04,17,04,29,10.30
2021,04,17,04,30,10.40
2021,04,17,04,31,10.40
2021,04,17,04,32,10.40
2021,04,17,04,33,10.40
2021,04,17,04,34,10.40
2021,04,17,04,35,10.40
2021,04,17,04,36,10.40
2021,04,17,04,37,10.40
2021,04,17,04,38,10.40
2021,04,17,04,39,10.40
2021,04,17,04,40,10.40
2021,04,17,04,41,10.30
2021,04,17,04,42,10.30
2021,04,17,04,43,10.30
2021,04,17,04,44,10.20
2021,04,17,04,45,10.20
2021,04,17,04,46,10.20
2021,04,17,04,47,10.20
2021,04,17,04,48,10.20
2021,04,17,04,49,10.20
2021,04,17,04,50,10.20
2021,04,17,04,51,10.20
2021,04,17,04,52,10.30
2021,04,17,04,53,10.30
2021,04,17,04,54,10.40
2021,04,17,04,55,10.40
2021,04,17,04,56,10.40
2021,04,17,04,57,10.40
2021,04,17,04,58,10.40
2021,04,17,04,59,10.40
2021,04,17,05,00,10.30
2021,04,17,05,01,10.30
2021,04,17,05,02,10.30
2021,04,17,05,03,10.20
2021,04,17,05,04,10.20
2021,04,17,05,05,10.20
2021,04,17,05,06,10.10
2021,04,17,05,07,10.10
2021,04,17,05,08,10.10
2021,04,17,05,09,10.10
2021,04,17,05,10,10.10
2021,04,17,05,11,10.20
2021,04,17,05,12,10.30
2021,04,17,05,13,10.40
2021,04,17,05,14,10.40
2021,04,17,05,15,10.40
2021,04,17,05,16,10.50
2021,04,17,05,17,10.60
2021,04,17,05,18,10.60
2021,04,17,05,19,10.60
2021,04,17,05,20,10.60
2021,04,17,05,21,10.60
2021,04,17,05,22,10.60
2021,04,17,05,23,10.60
2021,04,17,05,24,10.60
2021,04,17,05,25,10.60
2021,04,17,05,26,10.60
2021,04,17,05,27,10.60
2021,04,17,05,28,10.60
2021,04,17,05,29,10.60
2021,04,17,05,30,10.60
2021,04,17,05,31,10.50
2021,04,17,05,32,10.40
2021,04,17,05,33,10.40
2021,04,17,05,34,10.40
2021,04,17,05,35,10.40
2021,04,17,05,36,10.40
2021,04,17,05,37,10.40
2021,04,17,05,38,10.40
2021,04,17,05,39,10.40
2021,04,17,05,40,10.40
2021,04,17,05,41,10.40
2021,04,17,05,42,10.40
2021,04,17,05,43,10.40
2021,04,17,05,44,10.40
2021,04,17,05,45,10.40
2021,04,17,05,46,10.40
2021,04,17,05,47,10.50
2021,04,17,05,48,10.60
2021,04,17,05,49,10.60
2021,04,17,05,50,10.60
2021,04,17,05,51,10.60
2021,04,17,05,52,10.60
2021,04,17,05,53,10.60
2021,04,17,05,54,10.60
2021,04,17,05,55,10.70
2021,04,17,05,56,10.70
2021,04,17,05,57,10.80
2021,04,17,05,58,10.90
2021,04,17,05,59,10.90
2021,04,17,06,00,11.00
2021,04,17,06,01,11.10
2021,04,17,06,02,11.10
2021,04,17,06,03,11.20
2021,04,17,06,04,11.30
2021,04,17,06,05,11.30
2021,04,17,06,06,11.40
2021,04,17,06,07,11.40
2021,04,17,06,08,11.50
2021,04,17,06,09,11.60
2021,04,17,06,10,11.60
2021,04,17,06,11,11.60
2021,04,17,06,12,11.60
2021,04,17,06,13,11.60
2021,04,17,06,14,11.70
2021,04,17,06,15,11.70
2021,04,17,06,16,11.70
2021,04,17,06,17,11.70
2021,04,17,06,18,11.70
2021,04,17,06,19,11.70
2021,04,17,06,20,11.70
2021,04,17,06,21,11.70
2021,04,17,06,22,11.70
2021,04,17,06,23,11.80
2021,04,17,06,24,11.80
2021,04,17,06,25,11.80
2021,04,17,06,26,11.70
2021,04,17,06,27,11.70
2021,04,17,06,28,11.70
2021,04,17,06,29,11.70
2021,04,17,06,30,11.70
2021,04,17,06,31,11.70
2021,04,17,06,32,11.70
2021,04,17,06,33,11.70
2021,04,17,06,34,11.70
2021,04,17,06,35,11.70
2021,04,17,06,36,11.60
2021,04,17,06,37,11.60
2021,04,17,06,38,11.60
2021,04,17,06,39,11.60
2021,04,17,06,40,11.60
2021,04,17,06,41,11.50
2021,04,17,06,42,11.40
2021,04,17,06,43,11.40
2021,04,17,06,44,11.40
2021,04,17,06,45,11.40
2021,04,17,06,46,11.40
2021,04,17,06,47,11.40
2021,04,17,06,48,11.40
2021,04,17,06,49,11.30
2021,04,17,06,50,11.30
2021,04,17,06,51,11.30
2021,04,17,06,52,11.20
2021,04,17,06,53,11.20
2021,04,17,06,54,11.10
2021,04,17,06,55,11.10
2021,04,17,06,56,11.10
2021,04,17,06,57,11.10
2021,04,17,06,58,11.00
2021,04,17,06,59,10.90
2021,04,17,07,00,10.90
2021,04,17,07,01,11.00
2021,04,17,07,02,11.10
2021,04,17,07,03,11.10
2021,04,17,07,04,11.10
2021,04,17,07,05,11.10
2021,04,17,07,06,11.10
2021,04,17,07,07,11.10
2021,04,17,07,08,11.10
2021,04,17,07,09,11.10
2021,04,17,07,10,11.10
2021,04,17,07,11,10.90
2021,04,17,07,12,11.00
2021,04,17,07,13,11.10
2021,04,17,07,14,11.10
2021,04,17,07,15,11.20
2021,04,17,07,16,11.20
2021,04,17,07,17,11.30
2021,04,17,07,18,11.40
2021,04,17,07,19,11.40
2021,04,17,07,20,11.50
2021,04,17,07,21,11.60
2021,04,17,07,22,11.60
2021,04,17,07,23,11.60
2021,04,17,07,24,11.60
2021,04,17,07,25,11.70
2021,04,17,07,26,11.70
2021,04,17,07,27,11.80
2021,04,17,07,28,11.80
2021,04,17,07,29,11.80
2021,04,17,07,30,11.90
2021,04,17,07,31,11.90
2021,04,17,07,32,12.00
2021,04,17,07,33,12.00
2021,04,17,07,34,12.00
2021,04,17,07,35,12.10
2021,04,17,07,36,12.20
2021,04,17,07,37,12.20
2021,04,17,07,38,12.30
2021,04,17,07,39,12.30
2021,04,17,07,40,12.30
2021,04,17,07,41,12.40
2021,04,17,07,42,12.40
2021,04,17,07,43,12.50
2021,04,17,07,44,12.50
2021,04,17,07,45,12.50
2021,04,17,07,46,12.60
2021,04,17,07,47,12.60
2021,04,17,07,48,12.70
2021,04,17,07,49,12.80
2021,04,17,07,50,12.80
2021,04,17,07,51,12.80
2021,04,17,07,52,12.80
2021,04,17,07,53,12.90
2021,04,17,07,54,13.00
2021,04,17,07,55,13.00
2021,04,17,07,56,13.10
2021,04,17,07,57,13.10
2021,04,17,07,58,13.20
2021,04,17,07,59,13.20
2021,04,17,08,00,13.30
2021,04,17,08,01,13.30
2021,04,17,08,02,13.30
2021,04,17,08,03,13.40
2021,04,17,08,04,13.40
2021,04,17,08,05,13.50
2021,04,17,08,06,13.50
2021,04,17,08,07,13.60
2021,04,17,08,08,13.60
2021,04,17,08,09,13.70
2021,04,17,08,10,13.70
2021,04,17,08,11,13.80
2021,04,17,08,12,13.90
2021,04,17,08,13,14.00
2021,04,17,08,14,14.00
2021,04,17,08,15,14.10
2021,04,17,08,16,14.20
2021,04,17,08,17,14.20
2021,04,17,08,18,14.30
2021,04,17,08,19,14.40
2021,04,17,08,20,14.50
2021,04,17,08,21,14.50
2021,04,17,08,22,14.60
2021,04,17,08,23,14.60
2021,04,17,08,24,14.60
2021,04,17,08,25,14.70
2021,04,17,08,26,14.80
2021,04,17,08,27,14.80
2021,04,17,08,28,14.80
2021,04,17,08,29,14.90
2021,04,17,08,30,15.00
2021,04,17,08,31,15.00
2021,04,17,08,32,15.10
2021,04,17,08,33,15.20
2021,04,17,08,34,15.30
2021,04,17,08,35,15.30
2021,04,17,08,36,15.40
2021,04,17,08,37,15.50
2021,04,17,08,38,15.50
2021,04,17,08,39,15.60
2021,04,17,08,40,15.60
2021,04,17,08,41,15.60
2021,04,17,08,42,15.70
2021,04,17,08,43,15.70
2021,04,17,08,44,15.70
2021,04,17,08,45,15.80
2021,04,17,08,46,15.80
2021,04,17,08,47,15.80
2021,04,17,08,48,15.80
2021,04,17,08,49,15.90
2021,04,17,08,50,15.90
2021,04,17,08,51,15.90
2021,04,17,08,52,16.00
2021,04,17,08,53,16.10
2021,04,17,08,54,16.10
2021,04,17,08,55,16.10
2021,04,17,08,56,16.20
2021,04,17,08,57,16.20
2021,04,17,08,58,16.20
2021,04,17,08,59,16.30
2021,04,17,09,00,16.30
2021,04,17,09,01,16.30
2021,04,17,09,02,16.30
2021,04,17,09,03,16.30
2021,04,17,09,04,16.40
2021,04,17,09,05,16.40
2021,04,17,09,06,16.40
2021,04,17,09,07,16.40
2021,04,17,09,08,16.50
2021,04,17,09,09,16.60
2021,04,17,09,10,16.70
2021,04,17,09,11,16.70
2021,04,17,09,12,16.70
2021,04,17,09,13,16.70
2021,04,17,09,14,16.70
2021,04,17,09,15,16.70
2021,04,17,09,16,16.80
2021,04,17,09,17,16.80
2021,04,17,09,18,16.90
2021,04,17,09,19,16.90
2021,04,17,09,20,16.90
2021,04,17,09,21,16.90
2021,04,17,09,22,16.80
2021,04,17,09,23,16.70
2021,04,17,09,24,16.70
2021,04,17,09,25,16.60
2021,04,17,09,26,16.60
2021,04,17,09,27,16.60
2021,04,17,09,28,16.50
2021,04,17,09,29,16.40
2021,04,17,09,30,16.40
2021,04,17,09,31,16.40
2021,04,17,09,32,16.40
2021,04,17,09,33,16.30
2021,04,17,09,34,16.30
2021,04,17,09,35,16.30
2021,04,17,09,36,16.40
2021,04,17,09,37,16.40
2021,04,17,09,38,16.40
2021,04,17,09,39,16.50
2021,04,17,09,40,16.60
2021,04,17,09,41,16.70
2021,04,17,09,42,16.70
2021,04,17,09,43,16.80
2021,04,17,09,44,16.90
2021,04,17,09,45,16.90
2021,04,17,09,46,17.00
2021,04,17,09,47,17.10
2021,04,17,09,48,17.20
2021,04,17,09,49,17.30
2021,04,17,09,50,17.30
2021,04,17,09,51,17.30
2021,04,17,09,52,17.20
2021,04,17,09,53,17.00
2021,04,17,09,54,17.00
2021,04,17,09,55,16.90
2021,04,17,09,56,16.80
2021,04,17,09,57,16.90
2021,04,17,09,58,16.90
2021,04,17,09,59,17.00
2021,04,17,10,00,17.10
2021,04,17,10,01,17.20
2021,04,17,10,02,17.30
2021,04,17,10,03,17.30
2021,04,17,10,04,17.40
2021,04,17,10,05,17.50
2021,04,17,10,06,17.50
2021,04,17,10,07,17.60
2021,04,17,10,08,17.70
2021,04,17,10,09,17.70
2021,04,17,10,10,17.70
2021,04,17,10,11,17.70
2021,04,17,10,12,17.70
2021,04,17,10,13,17.80
2021,04,17,10,14,17.80
2021,04,17,10,15,17.90
2021,04,17,10,16,17.90
2021,04,17,10,17,18.00
2021,04,17,10,18,17.90
2021,04,17,10,19,17.90
2021,04,17,10,20,17.90
2021,04,17,10,21,18.00
2021,04,17,10,22,18.10
2021,04,17,10,23,18.20
2021,04,17,10,24,18.20
2021,04,17,10,25,18.30
2021,04,17,10,26,18.40
2021,04,17,10,27,18.40
2021,04,17,10,28,18.40
2021,04,17,10,29,18.30
2021,04,17,10,30,18.10
2021,04,17,10,31,18.00
2021,04,17,10,32,17.90
2021,04,17,10,33,17.90
2021,04,17,10,34,17.80
2021,04,17,10,35,17.70
2021,04,17,10,36,17.60
2021,04,17,10,37,17.50
2021,04,17,10,38,17.30
2021,04,17,10,39,17.20
2021,04,17,10,40,17.10
2021,04,17,10,41,17.00
2021,04,17,10,42,16.90
2021,04,17,10,43,16.90
2021,04,17,10,44,16.90
2021,04,17,10,45,17.00
2021,04,17,10,46,17.00
2021,04,17,10,47,17.00
2021,04,17,10,48,17.20
2021,04,17,10,49,17.30
2021,04,17,10,50,17.30
2021,04,17,10,51,17.20
2021,04,17,10,52,17.10
2021,04,17,10,53,16.90
2021,04,17,10,54,16.80
2021,04,17,10,55,16.70
2021,04,17,10,56,16.70
2021,04,17,10,57,16.70
2021,04,17,10,58,16.70
2021,04,17,10,59,16.70
2021,04,17,11,00,16.70
2021,04,17,11,01,16.60
2021,04,17,11,02,16.40
2021,04,17,11,03,16.30
2021,04,17,11,04,16.20
2021,04,17,11,05,16.10
2021,04,17,11,06,15.90
2021,04,17,11,07,15.80
2021,04,17,11,08,15.80
2021,04,17,11,09,15.80
2021,04,17,11,10,15.80
2021,04,17,11,11,15.80
2021,04,17,11,12,15.90
2021,04,17,11,13,16.10
2021,04,17,11,14,16.30
2021,04,17,11,15,16.30
2021,04,17,11,16,16.20
2021,04,17,11,17,16.20
2021,04,17,11,18,16.00
2021,04,17,11,19,15.90
2021,04,17,11,20,15.70
2021,04,17,11,21,15.60
2021,04,17,11,22,15.70
2021,04,17,11,23,15.60
2021,04,17,11,24,15.60
2021,04,17,11,25,15.60
2021,04,17,11,26,15.50
2021,04,17,11,27,15.60
2021,04,17,11,28,15.70
2021,04,17,11,29,15.70
2021,04,17,11,30,15.80
2021,04,17,11,31,15.80
2021,04,17,11,32,15.90
2021,04,17,11,33,16.00
2021,04,17,11,34,16.10
2021,04,17,11,35,15.90
2021,04,17,11,36,16.00
2021,04,17,11,37,16.10
2021,04,17,11,38,16.20
2021,04,17,11,39,16.20
2021,04,17,11,40,16.30
2021,04,17,11,41,16.20
2021,04,17,11,42,16.20
2021,04,17,11,43,16.10
2021,04,17,11,44,16.00
2021,04,17,11,45,15.80
2021,04,17,11,46,15.70
2021,04,17,11,47,15.60
2021,04,17,11,48,15.60
2021,04,17,11,49,15.40
2021,04,17,11,50,15.30
2021,04,17,11,51,15.30
2021,04,17,11,52,15.40
2021,04,17,11,53,15.50
2021,04,17,11,54,15.50
2021,04,17,11,55,15.50
2021,04,17,11,56,15.40
2021,04,17,11,57,15.40
2021,04,17,11,58,15.20
2021,04,17,11,59,15.10
2021,04,17,12,00,15.20
2021,04,17,12,01,15.20
2021,04,17,12,02,15.30
2021,04,17,12,03,15.30
2021,04,17,12,04,15.40
2021,04,17,12,05,15.50
2021,04,17,12,06,15.50
2021,04,17,12,07,15.50
2021,04,17,12,08,15.50
2021,04,17,12,09,15.40
2021,04,17,12,10,15.30
2021,04,17,12,11,15.30
2021,04,17,12,12,15.30
2021,04,17,12,13,15.30
2021,04,17,12,14,15.30
2021,04,17,12,15,15.30
2021,04,17,12,16,15.40
2021,04,17,12,17,15.40
2021,04,17,12,18,15.50
2021,04,17,12,19,15.50
2021,04,17,12,20,15.70
2021,04,17,12,21,15.80
2021,04,17,12,22,15.90
2021,04,17,12,23,16.10
2021,04,17,12,24,16.30
2021,04,17,12,25,16.30
2021,04,17,12,26,16.30
2021,04,17,12,27,16.30
2021,04,17,12,28,16.30
2021,04,17,12,29,16.40
2021,04,17,12,30,16.40
2021,04,17,12,31,16.60
2021,04,17,12,32,16.60
2021,04,17,12,33,16.80
2021,04,17,12,34,16.80
2021,04,17,12,35,16.90
2021,04,17,12,36,17.00
2021,04,17,12,37,17.00
2021,04,17,12,38,16.90
2021,04,17,12,39,16.80
2021,04,17,12,40,16.70
2021,04,17,12,41,16.70
2021,04,17,12,42,16.70
2021,04,17,12,43,16.80
2021,04,17,12,44,16.80
2021,04,17,12,45,17.00
2021,04,17,12,46,17.10
2021,04,17,12,47,17.30
2021,04,17,12,48,17.40
2021,04,17,12,49,17.40
2021,04,17,12,50,17.40
2021,04,17,12,51,17.50
2021,04,17,12,52,17.50
2021,04,17,12,53,17.50
2021,04,17,12,54,17.30
2021,04,17,12,55,17.20
2021,04,17,12,56,17.20
2021,04,17,12,57,17.30
2021,04,17,12,58,17.30
2021,04,17,12,59,17.30
2021,04,17,13,00,17.30
2021,04,17,13,01,17.30
2021,04,17,13,02,17.40
2021,04,17,13,03,17.40
2021,04,17,13,04,17.30
2021,04,17,13,05,17.30
2021,04,17,13,06,17.30
2021,04,17,13,07,17.30
2021,04,17,13,08,17.30
2021,04,17,13,09,17.40
2021,04,17,13,10,17.40
2021,04,17,13,11,17.60
2021,04,17,13,12,17.80
2021,04,17,13,13,17.90
2021,04,17,13,14,18.00
2021,04,17,13,15,18.20
2021,04,17,13,16,18.20
2021,04,17,13,17,18.20
2021,04,17,13,18,18.40
2021,04,17,13,19,18.50
2021,04,17,13,20,18.60
2021,04,17,13,21,18.60
2021,04,17,13,22,18.60
2021,04,17,13,23,18.50
2021,04,17,13,24,18.50
2021,04,17,13,25,18.50
2021,04,17,13,26,18.60
2021,04,17,13,27,18.70
2021,04,17,13,28,18.70
2021,04,17,13,29,18.60
2021,04,17,13,30,18.60
2021,04,17,13,31,18.60
2021,04,17,13,32,18.60
2021,04,17,13,33,18.70
2021,04,17,13,34,18.70
2021,04,17,13,35,18.70
2021,04,17,13,36,18.60
2021,04,17,13,37,18.60
2021,04,17,13,38,18.60
2021,04,17,13,39,18.50
2021,04,17,13,40,18.40
2021,04,17,13,41,18.50
2021,04,17,13,42,18.50
2021,04,17,13,43,18.60
2021,04,17,13,44,18.70
2021,04,17,13,45,18.80
2021,04,17,13,46,19.00
2021,04,17,13,47,19.30
2021,04,17,13,48,19.40
2021,04,17,13,49,19.40
2021,04,17,13,50,19.40
2021,04,17,13,51,19.40
2021,04,17,13,52,19.30
2021,04,17,13,53,19.40
2021,04,17,13,54,19.40
2021,04,17,13,55,19.50
2021,04,17,13,56,19.50
2021,04,17,13,57,19.60
2021,04,17,13,58,19.70
2021,04,17,13,59,19.70
2021,04,17,14,00,19.70
2021,04,17,14,01,19.90
2021,04,17,14,02,19.90
2021,04,17,14,03,19.90
2021,04,17,14,04,19.90
2021,04,17,14,05,20.00
2021,04,17,14,06,20.10
2021,04,17,14,07,20.20
2021,04,17,14,08,20.20
2021,04,17,14,09,20.10
2021,04,17,14,10,20.10
2021,04,17,14,11,20.20
2021,04,17,14,12,20.20
2021,04,17,14,13,20.20
2021,04,17,14,14,20.10
2021,04,17,14,15,20.10
2021,04,17,14,16,20.00
2021,04,17,14,17,19.90
2021,04,17,14,18,19.90
2021,04,17,14,19,19.90
2021,04,17,14,20,20.00
2021,04,17,14,21,20.10
2021,04,17,14,22,20.10
2021,04,17,14,23,20.00
2021,04,17,14,24,19.90
2021,04,17,14,25,19.90
2021,04,17,14,26,20.00
2021,04,17,14,27,20.00
2021,04,17,14,28,19.90
2021,04,17,14,29,20.00
2021,04,17,14,30,20.10
2021,04,17,14,31,20.20
2021,04,17,14,32,20.20
2021,04,17,14,33,20.40
2021,04,17,14,34,20.50
2021,04,17,14,35,20.50
2021,04,17,14,36,20.50
2021,04,17,14,37,20.40
2021,04,17,14,38,20.30
2021,04,17,14,39,20.40
2021,04,17,14,40,20.50
2021,04,17,14,41,20.60
2021,04,17,14,42,20.70
2021,04,17,14,43,20.80
2021,04,17,14,44,21.00
2021,04,17,14,45,21.20
2021,04,17,14,46,21.30
2021,04,17,14,47,21.50
2021,04,17,14,48,21.70
2021,04,17,14,49,21.90
2021,04,17,14,50,22.00
2021,04,17,14,51,22.20
2021,04,17,14,52,22.40
2021,04,17,14,53,22.60
2021,04,17,14,54,22.60
2021,04,17,14,55,22.60
2021,04,17,14,56,22.50
2021,04,17,14,57,22.60
2021,04,17,14,58,22.60
2021,04,17,14,59,22.80
2021,04,17,15,00,22.80
2021,04,17,15,01,22.80
2021,04,17,15,02,22.90
2021,04,17,15,03,22.90
2021,04,17,15,04,22.90
2021,04,17,15,05,22.80
2021,04,17,15,06,22.60
2021,04,17,15,07,22.60
2021,04,17,15,08,22.40
2021,04,17,15,09,22.30
2021,04,17,15,10,22.20
2021,04,17,15,11,22.10
2021,04,17,15,12,21.80
2021,04,17,15,13,21.70
2021,04,17,15,14,21.50
2021,04,17,15,15,21.30
2021,04,17,15,16,21.20
2021,04,17,15,17,21.10
2021,04,17,15,18,21.20
2021,04,17,15,19,21.20
2021,04,17,15,20,21.30
2021,04,17,15,21,21.30
2021,04,17,15,22,21.30
2021,04,17,15,23,21.30
2021,04,17,15,24,21.40
2021,04,17,15,25,21.40
2021,04,17,15,26,21.30
2021,04,17,15,27,21.30
2021,04,17,15,28,21.30
2021,04,17,15,29,21.30
2021,04,17,15,30,21.30
2021,04,17,15,31,21.40
2021,04,17,15,32,21.30
2021,04,17,15,33,21.30
2021,04,17,15,34,21.30
2021,04,17,15,35,21.30
2021,04,17,15,36,21.30
2021,04,17,15,37,21.40
2021,04,17,15,38,21.40
2021,04,17,15,39,21.50
2021,04,17,15,40,21.60
2021,04,17,15,41,21.80
2021,04,17,15,42,21.90
2021,04,17,15,43,22.10
2021,04,17,15,44,22.20
2021,04,17,15,45,22.30
2021,04,17,15,46,22.30
2021,04,17,15,47,22.40
2021,04,17,15,48,22.60
2021,04,17,15,49,22.70
2021,04,17,15,50,22.70
2021,04,17,15,51,22.80
2021,04,17,15,52,22.80
2021,04,17,15,53,22.80
2021,04,17,15,54,22.80
2021,04,17,15,55,22.80
2021,04,17,15,56,22.80
2021,04,17,15,57,22.70
2021,04,17,15,58,22.70
2021,04,17,15,59,22.70
2021,04,17,16,00,22.80
2021,04,17,16,01,22.90
2021,04,17,16,02,23.00
2021,04,17,16,03,23.20
2021,04,17,16,04,23.30
2021,04,17,16,05,23.50
2021,04,17,16,06,23.60
2021,04,17,16,07,23.60
2021,04,17,16,08,23.60
2021,04,17,16,09,23.60
2021,04,17,16,10,23.60
2021,04,17,16,11,23.50
2021,04,17,16,12,23.40
2021,04,17,16,13,23.30
2021,04,17,16,14,23.30
2021,04,17,16,15,23.30
2021,04,17,16,16,23.40
2021,04,17,16,17,23.40
2021,04,17,16,18,23.50
2021,04,17,16,19,23.60
2021,04,17,16,20,23.70
2021,04,17,16,21,23.70
2021,04,17,16,22,23.70
2021,04,17,16,23,23.70
2021,04,17,16,24,23.70
2021,04,17,16,25,23.70
2021,04,17,16,26,23.70
2021,04,17,16,27,23.50
2021,04,17,16,28,23.40
2021,04,17,16,29,23.40
2021,04,17,16,30,23.30
2021,04,17,16,31,23.40
2021,04,17,16,32,23.50
2021,04,17,16,33,23.60
2021,04,17,16,34,23.60
2021,04,17,16,35,23.70
2021,04,17,16,36,23.70
2021,04,17,16,37,23.70
2021,04,17,16,38,23.80
2021,04,17,16,39,23.80
2021,04,17,16,40,23.80
2021,04,17,16,41,23.90
2021,04,17,16,42,23.90
2021,04,17,16,43,24.00
2021,04,17,16,44,24.10
2021,04,17,16,45,24.10
2021,04,17,16,46,24.10
2021,04,17,16,47,23.90
2021,04,17,16,48,23.60
2021,04,17,16,49,23.30
2021,04,17,16,50,23.10
2021,04,17,16,51,22.90
2021,04,17,16,52,22.70
2021,04,17,16,53,22.50
2021,04,17,16,54,22.20
2021,04,17,16,55,22.10
2021,04,17,16,56,22.00
2021,04,17,16,57,21.80
2021,04,17,16,58,21.70
2021,04,17,16,59,21.70
2021,04,17,17,00,21.70
2021,04,17,17,01,21.60
2021,04,17,17,02,21.70
2021,04,17,17,03,21.70
2021,04,17,17,04,21.70
2021,04,17,17,05,21.70
2021,04,17,17,06,21.60
2021,04,17,17,07,21.50
2021,04,17,17,08,21.40
2021,04,17,17,09,21.30
2021,04,17,17,10,21.30
2021,04,17,17,11,21.20
2021,04,17,17,12,21.10
2021,04,17,17,13,21.10
2021,04,17,17,14,21.10
2021,04,17,17,15,21.10
2021,04,17,17,16,21.00
2021,04,17,17,17,21.00
2021,04,17,17,18,20.90
2021,04,17,17,19,20.90